Hourly Weather Tatabanya

Today, 29 October, Thursday

Time Temperature Precipitation Wind Pressure Humidity
00:00 +11°C° 0 mm 1 mps 742 mmHg 89%
01:00 +10°C° 0 mm 1 mps 742 mmHg 89%
02:00 +10°C° 0 mm 1 mps 742 mmHg 89%
03:00 +10°C° 0 mm 1 mps 741 mmHg 88%
04:00 +10°C° 0 mm 1 mps 741 mmHg 88%
05:00 +10°C° 0 mm 1 mps 741 mmHg 87%
06:00 +11°C° 0 mm 1 mps 742 mmHg 85%
07:00 +11°C° 0 mm 1 mps 742 mmHg 84%
08:00 +12°C° 0 mm 1 mps 742 mmHg 79%
09:00 +13°C° 0 mm 2 mps 742 mmHg 74%
10:00 +14°C° 0 mm 2 mps 743 mmHg 68%
11:00 +13°C° 0 mm 3 mps 743 mmHg 66%
12:00 +14°C° 0 mm 4 mps 742 mmHg 63%
13:00 +15°C° 0 mm 6 mps 742 mmHg 60%
14:00 +14°C° 0.4 mm 5 mps 742 mmHg 66%
15:00 +12°C° 0.4 mm 5 mps 743 mmHg 72%
16:00 +10°C° 0.4 mm 5 mps 743 mmHg 78%
17:00 +11°C° 0.2 mm 4 mps 743 mmHg 79%
18:00 +11°C° 0.2 mm 4 mps 743 mmHg 81%
19:00 +10°C° 0.2 mm 3 mps 744 mmHg 82%
20:00 +10°C° 0 mm 3 mps 744 mmHg 82%
21:00 +8°C° 0 mm 4 mps 744 mmHg 82%
22:00 +8°C° 0 mm 5 mps 745 mmHg 82%
23:00 +7°C° 0 mm 4 mps 745 mmHg 82%

Tomorrow, 30 October, Friday

Time Temperature Precipitation Wind Pressure Humidity
00:00 +7°C° 0 mm 4 mps 745 mmHg 82%
01:00 +6°C° 0 mm 4 mps 745 mmHg 83%
02:00 +7°C° 0 mm 3 mps 745 mmHg 84%
03:00 +7°C° 0 mm 3 mps 745 mmHg 84%
04:00 +6°C° 0 mm 2 mps 745 mmHg 85%
05:00 +6°C° 0 mm 2 mps 746 mmHg 85%
06:00 +6°C° 0 mm 2 mps 746 mmHg 84%
07:00 +8°C° 0 mm 1 mps 746 mmHg 84%
08:00 +7°C° 0 mm 2 mps 746 mmHg 84%
09:00 +8°C° 0 mm 2 mps 746 mmHg 84%
10:00 +9°C° 0 mm 2 mps 746 mmHg 84%
11:00 +9°C° 0.2 mm 3 mps 746 mmHg 85%
12:00 +9°C° 0.2 mm 3 mps 746 mmHg 87%
13:00 +10°C° 0.2 mm 3 mps 745 mmHg 89%
14:00 +10°C° 0.4 mm 3 mps 745 mmHg 89%
15:00 +10°C° 0.4 mm 3 mps 745 mmHg 88%
16:00 +10°C° 0.4 mm 4 mps 745 mmHg 88%
17:00 +10°C° 0.1 mm 4 mps 745 mmHg 87%
18:00 +10°C° 0.1 mm 4 mps 745 mmHg 86%
19:00 +11°C° 0.1 mm 4 mps 745 mmHg 85%
20:00 +11°C° 0.2 mm 4 mps 745 mmHg 86%
21:00 +11°C° 0.2 mm 4 mps 745 mmHg 87%
22:00 +11°C° 0.2 mm 4 mps 745 mmHg 88%
23:00 +11°C° 0.1 mm 4 mps 745 mmHg 88%

Day after tomorrow, 31 October, Saturday

Time Temperature Precipitation Wind Pressure Humidity
00:00 +10°C° 0.1 mm 5 mps 745 mmHg 89%
01:00 +10°C° 0.1 mm 5 mps 744 mmHg 89%
02:00 +10°C° 0.1 mm 5 mps 744 mmHg 88%
03:00 +10°C° 0.1 mm 5 mps 744 mmHg 87%
04:00 +10°C° 0.1 mm 5 mps 744 mmHg 86%
05:00 +10°C° 0.1 mm 5 mps 744 mmHg 85%
06:00 +10°C° 0.1 mm 5 mps 744 mmHg 83%
07:00 +10°C° 0.1 mm 5 mps 744 mmHg 82%
08:00 +11°C° 0.1 mm 6 mps 744 mmHg 81%
09:00 +11°C° 0.1 mm 6 mps 744 mmHg 79%
10:00 +11°C° 0.1 mm 7 mps 744 mmHg 78%
11:00 +12°C° 0 mm 7 mps 744 mmHg 77%
12:00 +13°C° 0 mm 6 mps 744 mmHg 77%
13:00 +14°C° 0 mm 6 mps 744 mmHg 76%
14:00 +13°C° 0 mm 5 mps 744 mmHg 78%
15:00 +13°C° 0 mm 5 mps 744 mmHg 80%
16:00 +13°C° 0 mm 4 mps 744 mmHg 82%
17:00 +12°C° 0 mm 3 mps 744 mmHg 85%
18:00 +12°C° 0 mm 3 mps 745 mmHg 87%
19:00 +12°C° 0 mm 2 mps 745 mmHg 90%
20:00 +12°C° 0 mm 2 mps 745 mmHg 90%
21:00 +12°C° 0 mm 2 mps 745 mmHg 90%
22:00 +11°C° 0 mm 1 mps 746 mmHg 90%
23:00 +10°C° 0 mm 2 mps 746 mmHg 86%

1 November, Sunday

Time Temperature Precipitation Wind Pressure Humidity
00:00 +10°C° 0 mm 2 mps 746 mmHg 82%
01:00 +9°C° 0 mm 2 mps 746 mmHg 78%
02:00 +9°C° 0 mm 2 mps 746 mmHg 78%
03:00 +8°C° 0 mm 2 mps 746 mmHg 78%
04:00 +8°C° 0 mm 2 mps 746 mmHg 78%
05:00 +7°C° 0 mm 2 mps 746 mmHg 79%
06:00 +7°C° 0 mm 2 mps 746 mmHg 80%
07:00 +7°C° 0 mm 2 mps 746 mmHg 81%
08:00 +8°C° 0 mm 2 mps 746 mmHg 75%
09:00 +9°C° 0 mm 2 mps 746 mmHg 70%
10:00 +11°C° 0 mm 3 mps 747 mmHg 64%
11:00 +11°C° 0 mm 3 mps 746 mmHg 61%
12:00 +12°C° 0 mm 3 mps 746 mmHg 58%
13:00 +13°C° 0 mm 3 mps 746 mmHg 55%
14:00 +13°C° 0 mm 2 mps 746 mmHg 58%
15:00 +12°C° 0 mm 2 mps 746 mmHg 61%
16:00 +12°C° 0 mm 2 mps 745 mmHg 64%
17:00 +10°C° 0 mm 2 mps 745 mmHg 66%
18:00 +9°C° 0 mm 2 mps 745 mmHg 68%
19:00 +8°C° 0 mm 2 mps 746 mmHg 71%
20:00 +8°C° 0 mm 2 mps 745 mmHg 72%
21:00 +8°C° 0 mm 2 mps 745 mmHg 72%
22:00 +7°C° 0 mm 2 mps 745 mmHg 73%
23:00 +8°C° 0 mm 1 mps 745 mmHg 74%

2 November, Monday

Time Temperature Precipitation Wind Pressure Humidity
00:00 +8°C° 0 mm 1 mps 745 mmHg 75%
01:00 +8°C° 0 mm 1 mps 745 mmHg 75%
02:00 +7°C° 0 mm 2 mps 745 mmHg 76%
03:00 +6°C° 0 mm 2 mps 745 mmHg 76%
04:00 +6°C° 0 mm 2 mps 744 mmHg 77%
05:00 +6°C° 0 mm 2 mps 745 mmHg 77%
06:00 +7°C° 0 mm 1 mps 745 mmHg 77%
07:00 +7°C° 0 mm 1 mps 745 mmHg 77%
08:00 +8°C° 0 mm 1 mps 745 mmHg 72%
09:00 +9°C° 0 mm 2 mps 745 mmHg 67%
10:00 +10°C° 0 mm 2 mps 745 mmHg 61%
11:00 +12°C° 0 mm 2 mps 744 mmHg 61%
12:00 +13°C° 0 mm 2 mps 744 mmHg 60%
13:00 +14°C° 0 mm 1 mps 744 mmHg 59%
14:00 +14°C° 0 mm 2 mps 744 mmHg 62%
15:00 +13°C° 0 mm 2 mps 743 mmHg 66%
16:00 +13°C° 0 mm 2 mps 743 mmHg 69%
17:00 +12°C° 0 mm 2 mps 743 mmHg 70%
18:00 +12°C° 0 mm 2 mps 743 mmHg 71%
19:00 +10°C° 0 mm 2 mps 743 mmHg 71%
20:00 +11°C° 0 mm 1 mps 743 mmHg 71%
21:00 +11°C° 0 mm 1 mps 743 mmHg 71%
22:00 +11°C° 0 mm 1 mps 743 mmHg 70%
23:00 +11°C° 0 mm 1 mps 743 mmHg 70%

3 November, Tuesday

Time Temperature Precipitation Wind Pressure Humidity
00:00 +11°C° 0 mm 1 mps 743 mmHg 70%
01:00 +9°C° 0 mm 2 mps 743 mmHg 70%
02:00 +9°C° 0 mm 2 mps 743 mmHg 70%
03:00 +10°C° 0 mm 1 mps 742 mmHg 71%
04:00 +10°C° 0 mm 1 mps 742 mmHg 72%
05:00 +10°C° 0.1 mm 1 mps 742 mmHg 72%
06:00 +9°C° 0.1 mm 1 mps 743 mmHg 73%
07:00 +9°C° 0.1 mm 1 mps 743 mmHg 73%
08:00 +8°C° 0.1 mm 2 mps 743 mmHg 73%
09:00 +9°C° 0.1 mm 2 mps 743 mmHg 72%
10:00 +9°C° 0.1 mm 2 mps 743 mmHg 72%
11:00 +9°C° 0 mm 2 mps 743 mmHg 70%
12:00 +11°C° 0 mm 1 mps 743 mmHg 68%
13:00 +11°C° 0 mm 1 mps 743 mmHg 66%
14:00 +11°C° 0 mm 1 mps 743 mmHg 68%
15:00 +11°C° 0 mm 1 mps 743 mmHg 69%
16:00 +10°C° 0 mm 0 mps 743 mmHg 71%
17:00 +10°C° 0 mm 0 mps 743 mmHg 72%
18:00 +10°C° 0 mm 0 mps 744 mmHg 72%
19:00 +10°C° 0 mm 1 mps 744 mmHg 73%
20:00 +10°C° 0 mm 1 mps 744 mmHg 74%
21:00 +10°C° 0 mm 1 mps 744 mmHg 76%
22:00 +9°C° 0 mm 1 mps 745 mmHg 77%
23:00 +9°C° 0 mm 1 mps 745 mmHg 78%
Show more